Time,TemperatureF,DewpointF,PressureIn,WindDirection,WindDirectionDegrees,WindSpeedMPH,WindSpeedGustMPH,Humidity,HourlyPrecipIn,Conditions,Clouds,dailyrainin,SoftwareType,DateUTC
2013-03-11 00:01:00,29.7,22.1,30.15,NNE,22,10.4,10.4,73,0.00,RA,,0.00,WeatherDisplay:10.37,2013-03-11 00:01:00,
2013-03-11 00:06:00,29.7,22.4,30.15,North,6,4.6,4.6,74,0.00,RA,,0.00,WeatherDisplay:10.37,2013-03-11 00:06:00,
2013-03-11 00:11:00,29.5,22.2,30.15,North,355,4.6,4.6,74,0.00,CLR,,0.00,WeatherDisplay:10.37,2013-03-11 00:11:00,
2013-03-11 00:16:00,29.3,22.4,30.15,NNE,13,4.0,4.4,75,0.00,CLR,,0.00,WeatherDisplay:10.37,2013-03-11 00:16:00,
2013-03-11 00:22:00,29.5,22.2,30.16,NNW,347,6.9,6.9,74,0.00,CLR,,0.00,WeatherDisplay:10.37,2013-03-11 00:22:00,
2013-03-11 00:27:00,29.8,22.2,30.16,North,1,11.5,11.5,73,0.00,CLR,,0.00,WeatherDisplay:10.37,2013-03-11 00:27:00,
2013-03-11 00:32:00,29.7,22.7,30.16,North,5,5.0,5.0,75,0.00,CLR,,0.00,WeatherDisplay:10.37,2013-03-11 00:32:00,
2013-03-11 00:37:00,29.5,23.2,30.16,North,349,5.8,5.8,77,0.00,CLR,,0.00,WeatherDisplay:10.37,2013-03-11 00:37:00,
2013-03-11 00:42:00,29.2,22.9,30.16,North,1,2.3,2.3,77,0.00,CLR,,0.00,WeatherDisplay:10.37,2013-03-11 00:42:00,
2013-03-11 00:47:00,29.0,23.0,30.16,North,359,5.8,5.8,78,0.00,CLR,,0.00,WeatherDisplay:10.37,2013-03-11 00:47:00,
2013-03-11 00:52:00,29.0,23.0,30.16,ENE,74,6.0,6.0,78,0.00,CLR,,0.00,WeatherDisplay:10.37,2013-03-11 00:52:00,
2013-03-11 00:58:00,28.9,22.9,30.16,NNW,345,4.6,4.6,78,0.00,CLR,,0.00,WeatherDisplay:10.37,2013-03-11 00:58:00,
2013-03-11 01:04:00,28.7,22.7,30.16,NNW,333,3.5,3.5,78,0.00,CLR,,0.00,WeatherDisplay:10.37,2013-03-11 01:04:00,
2013-03-11 01:09:00,28.6,22.9,30.16,NE,51,1.2,1.2,79,0.00,CLR,,0.00,WeatherDisplay:10.37,2013-03-11 01:09:00,
2013-03-11 01:15:00,28.5,22.8,30.15,NW,320,2.0,2.0,79,0.00,CLR,,0.00,WeatherDisplay:10.37,2013-03-11 01:15:00,
2013-03-11 01:20:00,28.3,22.6,30.15,NW,317,1.2,2.1,79,0.00,CLR,,0.00,WeatherDisplay:10.37,2013-03-11 01:20:00,
2013-03-11 01:25:00,28.2,22.8,30.15,NNW,344,3.5,3.5,80,0.00,CLR,,0.00,WeatherDisplay:10.37,2013-03-11 01:25:00,
2013-03-11 01:30:00,28.1,22.4,30.16,NNW,336,3.5,3.5,79,0.00,CLR,,0.00,WeatherDisplay:10.37,2013-03-11 01:30:00,
2013-03-11 01:35:00,28.2,22.5,30.16,NNW,329,3.5,3.5,79,0.00,CLR,,0.00,WeatherDisplay:10.37,2013-03-11 01:35:00,
2013-03-11 01:40:00,28.4,22.1,30.16,NNE,32,9.0,9.0,77,0.00,CLR,,0.00,WeatherDisplay:10.37,2013-03-11 01:40:00,
2013-03-11 01:45:00,28.7,22.1,30.16,NNE,12,8.1,8.1,76,0.00,CLR,,0.00,WeatherDisplay:10.37,2013-03-11 01:45:00,
2013-03-11 01:51:00,28.9,22.0,30.16,NNE,18,3.5,3.5,75,0.00,CLR,,0.00,WeatherDisplay:10.37,2013-03-11 01:51:00,
2013-03-11 01:56:00,28.8,22.2,30.16,West,271,3.5,3.5,76,0.00,CLR,,0.00,WeatherDisplay:10.37,2013-03-11 01:56:00,
2013-03-11 02:01:00,28.8,22.2,30.16,NNW,329,3.5,3.5,76,0.00,CLR,,0.00,WeatherDisplay:10.37,2013-03-11 02:01:00,
2013-03-11 02:06:00,28.8,22.2,30.16,North,356,5.8,5.8,76,0.00,CLR,,0.00,WeatherDisplay:10.37,2013-03-11 02:06:00,
2013-03-11 02:11:00,28.8,22.5,30.16,North,2,3.5,3.5,77,0.00,CLR,,0.00,WeatherDisplay:10.37,2013-03-11 02:11:00,
2013-03-11 02:17:00,28.7,22.4,30.16,North,8,4.6,4.6,77,0.00,CLR,,0.00,WeatherDisplay:10.37,2013-03-11 02:17:00,
2013-03-11 02:22:00,28.7,22.4,30.16,NNW,340,4.0,4.0,77,0.00,CLR,,0.00,WeatherDisplay:10.37,2013-03-11 02:22:00,
2013-03-11 02:27:00,28.7,22.4,30.16,NW,323,4.6,4.6,77,0.00,CLR,,0.00,WeatherDisplay:10.37,2013-03-11 02:27:00,
2013-03-11 02:32:00,28.7,22.4,30.16,North,8,4.6,4.6,77,0.00,CLR,,0.00,WeatherDisplay:10.37,2013-03-11 02:32:00,
2013-03-11 02:37:00,28.7,22.4,30.16,North,5,6.9,6.9,77,0.00,CLR,,0.00,WeatherDisplay:10.37,2013-03-11 02:37:00,
2013-03-11 02:42:00,28.7,22.4,30.16,NNW,338,3.5,3.5,77,0.00,CLR,,0.00,WeatherDisplay:10.37,2013-03-11 02:42:00,
2013-03-11 02:47:00,28.7,22.4,30.16,North,8,4.6,4.6,77,0.00,CLR,,0.00,WeatherDisplay:10.37,2013-03-11 02:47:00,
2013-03-11 02:52:00,28.6,22.3,30.16,NNE,26,4.6,4.6,77,0.00,CLR,,0.00,WeatherDisplay:10.37,2013-03-11 02:52:00,
2013-03-11 02:57:00,28.4,22.4,30.16,North,356,4.0,4.0,78,0.00,CLR,,0.00,WeatherDisplay:10.37,2013-03-11 02:57:00,
2013-03-11 03:02:00,28.3,22.3,30.16,NNW,347,2.3,2.3,78,0.00,CLR,,0.00,WeatherDisplay:10.37,2013-03-11 03:02:00,
2013-03-11 03:07:00,28.2,22.2,30.16,North,359,2.3,2.3,78,0.00,CLR,,0.00,WeatherDisplay:10.37,2013-03-11 03:07:00,
2013-03-11 03:12:00,28.1,22.1,30.16,NNW,347,3.5,3.5,78,0.00,CLR,,0.00,WeatherDisplay:10.37,2013-03-11 03:12:00,
2013-03-11 03:17:00,28.1,22.1,30.16,NNW,342,0.0,0.0,78,0.00,CLR,,0.00,WeatherDisplay:10.37,2013-03-11 03:17:00,
2013-03-11 03:22:00,28.2,21.9,30.16,North,3,3.5,3.5,77,0.00,CLR,,0.00,WeatherDisplay:10.37,2013-03-11 03:22:00,
2013-03-11 03:27:00,28.1,21.5,30.16,North,350,2.0,2.0,76,0.00,CLR,,0.00,WeatherDisplay:10.37,2013-03-11 03:27:00,
2013-03-11 03:32:00,28.0,21.4,30.16,NE,47,3.0,3.0,76,0.00,CLR,,0.00,WeatherDisplay:10.37,2013-03-11 03:32:00,
2013-03-11 03:37:00,27.9,21.3,30.15,North,356,2.3,2.3,76,0.00,CLR,,0.00,WeatherDisplay:10.37,2013-03-11 03:37:00,
2013-03-11 03:42:00,27.9,21.3,30.16,North,1,3.5,3.5,76,0.00,CLR,,0.00,WeatherDisplay:10.37,2013-03-11 03:42:00,
2013-03-11 03:47:00,27.8,21.2,30.16,North,359,3.5,3.5,76,0.00,CLR,,0.00,WeatherDisplay:10.37,2013-03-11 03:47:00,
2013-03-11 03:52:00,27.8,21.5,30.16,ENE,64,3.5,3.5,77,0.00,CLR,,0.00,WeatherDisplay:10.37,2013-03-11 03:52:00,
2013-03-11 03:58:00,27.7,21.4,30.16,NE,40,3.5,3.5,77,0.00,CLR,,0.00,WeatherDisplay:10.37,2013-03-11 03:58:00,
2013-03-11 04:00:00,27.7,21.4,30.16,NNW,347,3.5,3.5,77,0.00,CLR,,0.00,WeatherDisplay:10.37,2013-03-11 04:00:00,
2013-03-11 04:05:00,27.7,21.4,30.16,NNW,345,4.6,4.6,77,0.00,CLR,,0.00,WeatherDisplay:10.37,2013-03-11 04:05:00,
2013-03-11 04:10:00,27.6,21.3,30.16,North,351,2.3,2.3,77,0.00,CLR,,0.00,WeatherDisplay:10.37,2013-03-11 04:10:00,
2013-03-11 04:15:00,27.5,21.2,30.16,NNE,32,3.0,3.0,77,0.00,CLR,,0.00,WeatherDisplay:10.37,2013-03-11 04:15:00,
2013-03-11 04:20:00,27.5,21.2,30.16,NNW,341,8.1,8.1,77,0.00,CLR,,0.00,WeatherDisplay:10.37,2013-03-11 04:20:00,
2013-03-11 04:25:00,27.6,21.3,30.16,NNE,32,5.8,5.8,77,0.00,CLR,,0.00,WeatherDisplay:10.37,2013-03-11 04:25:00,
2013-03-11 04:30:00,27.5,21.2,30.16,North,6,3.5,3.5,77,0.00,CLR,,0.00,WeatherDisplay:10.37,2013-03-11 04:30:00,
2013-03-11 04:35:00,27.6,20.7,30.16,NNW,340,3.5,3.5,75,0.00,CLR,,0.00,WeatherDisplay:10.37,2013-03-11 04:35:00,
2013-03-11 04:41:00,27.8,20.3,30.16,NNE,16,3.0,3.0,73,0.00,CLR,,0.00,WeatherDisplay:10.37,2013-03-11 04:41:00,
2013-03-11 04:47:00,27.8,19.6,30.16,North,2,3.5,3.5,71,0.00,CLR,,0.00,WeatherDisplay:10.37,2013-03-11 04:47:00,
2013-03-11 04:52:00,28.0,19.5,30.16,North,1,2.3,2.3,70,0.00,CLR,,0.00,WeatherDisplay:10.37,2013-03-11 04:52:00,
2013-03-11 04:57:00,28.0,18.8,30.16,NNW,340,3.5,3.5,68,0.00,CLR,,0.00,WeatherDisplay:10.37,2013-03-11 04:57:00,
2013-03-11 05:02:00,28.1,18.5,30.16,NNW,344,4.6,4.6,67,0.00,CLR,,0.00,WeatherDisplay:10.37,2013-03-11 05:02:00,
2013-03-11 05:08:00,28.2,18.6,30.16,NNE,18,3.5,3.5,67,0.00,CLR,,0.00,WeatherDisplay:10.37,2013-03-11 05:08:00,
2013-03-11 05:13:00,28.1,18.5,30.16,NNW,334,4.0,4.0,67,0.00,CLR,,0.00,WeatherDisplay:10.37,2013-03-11 05:13:00,
2013-03-11 05:18:00,28.3,18.4,30.16,NNE,18,8.1,8.1,66,0.00,CLR,,0.00,WeatherDisplay:10.37,2013-03-11 05:18:00,
2013-03-11 05:23:00,28.3,18.4,30.16,ENE,57,6.9,6.9,66,0.00,CLR,,0.00,WeatherDisplay:10.37,2013-03-11 05:23:00,
2013-03-11 05:28:00,28.3,18.4,30.16,North,359,8.1,8.1,66,0.00,CLR,,0.00,WeatherDisplay:10.37,2013-03-11 05:28:00,
2013-03-11 05:33:00,28.2,18.6,30.16,North,8,5.0,5.0,67,0.00,CLR,,0.00,WeatherDisplay:10.37,2013-03-11 05:33:00,
2013-03-11 05:38:00,28.2,18.6,30.16,North,349,3.5,3.5,67,0.00,CLR,,0.00,WeatherDisplay:10.37,2013-03-11 05:38:00,
2013-03-11 05:43:00,28.2,18.6,30.16,North,8,8.1,8.1,67,0.00,CLR,,0.00,WeatherDisplay:10.37,2013-03-11 05:43:00,
2013-03-11 05:49:00,28.2,18.6,30.16,North,356,8.1,8.1,67,0.00,CLR,,0.00,WeatherDisplay:10.37,2013-03-11 05:49:00,
2013-03-11 05:54:00,28.2,18.3,30.16,NNE,12,5.8,5.8,66,0.00,CLR,,0.00,WeatherDisplay:10.37,2013-03-11 05:54:00,
2013-03-11 05:59:00,28.1,18.2,30.16,North,10,4.6,4.6,66,0.00,CLR,,0.00,WeatherDisplay:10.37,2013-03-11 05:59:00,
2013-03-11 06:04:00,28.0,18.1,30.16,NNE,13,3.5,3.5,66,0.00,CLR,,0.00,WeatherDisplay:10.37,2013-03-11 06:04:00,
2013-03-11 06:09:00,28.1,17.8,30.16,North,351,5.8,5.8,65,0.00,CLR,,0.00,WeatherDisplay:10.37,2013-03-11 06:09:00,
2013-03-11 06:14:00,28.0,18.1,30.16,ENE,77,3.5,3.5,66,0.00,CLR,,0.00,WeatherDisplay:10.37,2013-03-11 06:14:00,
2013-03-11 06:19:00,27.5,18.7,30.16,North,10,5.8,5.8,69,0.00,CLR,,0.00,WeatherDisplay:10.37,2013-03-11 06:19:00,
2013-03-11 06:24:00,27.5,18.7,30.16,NNE,32,3.5,3.5,69,0.00,CLR,,0.00,WeatherDisplay:10.37,2013-03-11 06:24:00,
2013-03-11 06:29:00,27.3,18.8,30.17,North,2,1.2,1.2,70,0.00,CLR,,0.00,WeatherDisplay:10.37,2013-03-11 06:29:00,
2013-03-11 06:34:00,27.0,19.2,30.17,North,2,0.0,0.0,72,0.00,CLR,,0.00,WeatherDisplay:10.37,2013-03-11 06:34:00,
2013-03-11 06:39:00,26.7,19.5,30.17,North,1,2.3,2.3,74,0.00,CLR,,0.00,WeatherDisplay:10.37,2013-03-11 06:39:00,
2013-03-11 06:44:00,26.5,19.3,30.17,NNW,335,0.0,0.6,74,0.00,CLR,,0.00,WeatherDisplay:10.37,2013-03-11 06:44:00,
2013-03-11 06:49:00,26.6,19.4,30.17,NNW,344,3.5,3.5,74,0.00,CLR,,0.00,WeatherDisplay:10.37,2013-03-11 06:49:00,
2013-03-11 06:54:00,26.7,19.2,30.17,North,10,2.3,2.3,73,0.00,CLR,,0.00,WeatherDisplay:10.37,2013-03-11 06:54:00,
2013-03-11 07:00:00,26.9,19.1,30.17,North,356,1.2,1.2,72,0.00,CLR,,0.00,WeatherDisplay:10.37,2013-03-11 07:00:00,
2013-03-11 07:05:00,27.0,18.8,30.17,NNW,337,0.0,0.0,71,0.00,CLR,,0.00,WeatherDisplay:10.37,2013-03-11 07:05:00,
2013-03-11 07:10:00,27.4,18.9,30.17,NW,316,1.2,1.2,70,0.00,CLR,,0.00,WeatherDisplay:10.37,2013-03-11 07:10:00,
2013-03-11 07:15:00,28.0,19.5,30.17,North,355,1.2,1.2,70,0.00,CLR,,0.00,WeatherDisplay:10.37,2013-03-11 07:15:00,
2013-03-11 07:20:00,28.3,21.1,30.17,NNW,334,2.3,2.3,74,0.00,CLR,,0.00,WeatherDisplay:10.37,2013-03-11 07:20:00,
2013-03-11 07:25:00,28.0,20.8,30.17,NNE,22,2.3,2.3,74,0.00,CLR,,0.00,WeatherDisplay:10.37,2013-03-11 07:25:00,
2013-03-11 07:30:00,28.1,20.6,30.17,North,1,1.2,1.2,73,0.00,CLR,,0.00,WeatherDisplay:10.37,2013-03-11 07:30:00,
2013-03-11 07:35:00,28.3,20.7,30.17,North,1,1.2,1.2,73,0.00,CLR,,0.00,WeatherDisplay:10.37,2013-03-11 07:35:00,
2013-03-11 07:40:00,28.5,21.3,30.17,NNE,12,0.0,0.0,74,0.00,CLR,,0.00,WeatherDisplay:10.37,2013-03-11 07:40:00,
2013-03-11 07:45:00,28.8,21.6,30.18,NNE,12,1.2,1.2,74,0.00,CLR,,0.00,WeatherDisplay:10.37,2013-03-11 07:45:00,
2013-03-11 07:50:00,29.3,22.4,30.18,NNE,12,0.0,0.0,75,0.00,CLR,,0.00,WeatherDisplay:10.37,2013-03-11 07:50:00,
2013-03-11 07:55:00,29.9,22.6,30.18,NNE,12,0.0,0.0,74,0.00,CLR,,0.00,WeatherDisplay:10.37,2013-03-11 07:55:00,
2013-03-11 08:00:00,30.3,22.7,30.18,SW,225,2.3,2.3,73,0.00,CLR,,0.00,WeatherDisplay:10.37,2013-03-11 08:00:00,
2013-03-11 08:05:00,30.5,23.2,30.18,SW,226,1.2,1.2,74,0.00,CLR,,0.00,WeatherDisplay:10.37,2013-03-11 08:05:00,
2013-03-11 08:10:00,31.1,23.5,30.18,ENE,76,1.2,1.2,73,0.00,CLR,,0.00,WeatherDisplay:10.37,2013-03-11 08:10:00,
2013-03-11 08:15:00,30.9,21.9,30.17,NW,309,3.5,3.5,69,0.00,CLR,,0.00,WeatherDisplay:10.37,2013-03-11 08:15:00,
2013-03-11 08:21:00,30.8,21.8,30.17,NW,314,3.5,3.5,69,0.00,CLR,,0.00,WeatherDisplay:10.37,2013-03-11 08:21:00,
2013-03-11 08:26:00,31.2,20.4,30.18,North,359,5.8,5.8,64,0.00,CLR,,0.00,WeatherDisplay:10.37,2013-03-11 08:26:00,
2013-03-11 08:31:00,31.4,22.7,30.18,East,95,3.5,3.5,70,0.00,CLR,,0.00,WeatherDisplay:10.37,2013-03-11 08:31:00,
2013-03-11 08:36:00,31.2,22.5,30.18,NE,54,8.1,8.1,70,0.00,CLR,,0.00,WeatherDisplay:10.37,2013-03-11 08:36:00,
2013-03-11 08:41:00,31.6,22.6,30.18,NE,47,4.0,4.0,69,0.00,CLR,,0.00,WeatherDisplay:10.37,2013-03-11 08:41:00,
2013-03-11 08:46:00,31.7,20.9,30.18,North,10,5.8,5.8,64,0.00,CLR,,0.00,WeatherDisplay:10.37,2013-03-11 08:46:00,
2013-03-11 08:52:00,32.1,20.9,30.18,ESE,120,5.8,5.8,63,0.00,CLR,,0.00,WeatherDisplay:10.37,2013-03-11 08:52:00,
2013-03-11 08:57:00,32.2,22.1,30.18,NNE,20,2.3,2.3,66,0.00,CLR,,0.00,WeatherDisplay:10.37,2013-03-11 08:57:00,
2013-03-11 09:02:00,32.2,21.0,30.18,NNE,13,4.6,4.6,63,0.00,CLR,,0.00,WeatherDisplay:10.37,2013-03-11 09:02:00,
2013-03-11 09:07:00,32.3,21.1,30.18,WNW,297,4.6,4.6,63,0.00,CLR,,0.00,WeatherDisplay:10.37,2013-03-11 09:07:00,
2013-03-11 09:12:00,32.6,20.2,30.18,North,359,15.0,15.0,60,0.00,CLR,,0.00,WeatherDisplay:10.37,2013-03-11 09:12:00,
2013-03-11 09:17:00,32.7,19.9,30.18,NE,39,10.4,10.4,59,0.00,CLR,,0.00,WeatherDisplay:10.37,2013-03-11 09:17:00,
2013-03-11 09:22:00,32.9,20.9,30.18,ESE,110,8.1,8.1,61,0.00,CLR,,0.00,WeatherDisplay:10.37,2013-03-11 09:22:00,
2013-03-11 09:27:00,32.7,21.1,30.17,NNE,19,5.8,5.8,62,0.00,CLR,,0.00,WeatherDisplay:10.37,2013-03-11 09:27:00,
2013-03-11 09:32:00,33.0,21.4,30.17,NE,54,7.0,7.0,62,0.00,CLR,,0.00,WeatherDisplay:10.37,2013-03-11 09:32:00,
2013-03-11 09:37:00,33.4,19.8,30.17,NE,51,9.2,9.2,57,0.00,CLR,,0.00,WeatherDisplay:10.37,2013-03-11 09:37:00,
2013-03-11 09:43:00,33.8,20.2,30.17,NW,319,6.9,6.9,57,0.00,CLR,,0.00,WeatherDisplay:10.37,2013-03-11 09:43:00,
2013-03-11 09:48:00,34.1,20.0,30.18,NNW,342,6.9,6.9,56,0.00,CLR,,0.00,WeatherDisplay:10.37,2013-03-11 09:48:00,
2013-03-11 09:53:00,34.0,21.2,30.17,East,81,8.0,8.0,59,0.00,CLR,,0.00,WeatherDisplay:10.37,2013-03-11 09:53:00,
2013-03-11 09:58:00,34.1,21.7,30.17,NNW,330,12.7,12.7,60,0.00,CLR,,0.00,WeatherDisplay:10.37,2013-03-11 09:58:00,
2013-03-11 10:03:00,34.3,22.2,30.17,NNW,340,9.2,9.2,61,0.00,CLR,,0.00,WeatherDisplay:10.37,2013-03-11 10:03:00,
2013-03-11 10:08:00,34.3,21.4,30.17,West,278,11.5,11.5,59,0.00,CLR,,0.00,WeatherDisplay:10.37,2013-03-11 10:08:00,
2013-03-11 10:14:00,34.3,21.0,30.17,NE,36,7.0,7.0,58,0.00,CLR,,0.00,WeatherDisplay:10.37,2013-03-11 10:14:00,
2013-03-11 10:19:00,34.5,20.8,30.17,NE,41,7.0,7.0,57,0.00,CLR,,0.00,WeatherDisplay:10.37,2013-03-11 10:19:00,
2013-03-11 10:25:00,34.7,20.2,30.17,NNE,19,16.1,16.1,55,0.00,CLR,,0.00,WeatherDisplay:10.37,2013-03-11 10:25:00,
2013-03-11 10:30:00,34.7,20.6,30.17,NE,39,8.0,8.0,56,0.00,CLR,,0.00,WeatherDisplay:10.37,2013-03-11 10:30:00,
2013-03-11 10:35:00,34.6,19.6,30.17,NE,55,11.5,11.5,54,0.00,CLR,,0.00,WeatherDisplay:10.37,2013-03-11 10:35:00,
2013-03-11 10:40:00,34.6,19.2,30.17,NE,43,16.1,16.1,53,0.00,CLR,,0.00,WeatherDisplay:10.37,2013-03-11 10:40:00,
2013-03-11 10:47:00,35.1,19.2,30.17,NE,50,8.1,8.1,52,0.00,CLR,,0.00,WeatherDisplay:10.37,2013-03-11 10:47:00,
2013-03-11 10:52:00,35.4,19.9,30.17,ESE,115,15.0,15.0,53,0.00,CLR,,0.00,WeatherDisplay:10.37,2013-03-11 10:52:00,
2013-03-11 10:57:00,35.6,19.2,30.17,NNE,19,11.0,11.0,51,0.00,CLR,,0.00,WeatherDisplay:10.37,2013-03-11 10:57:00,
2013-03-11 11:02:00,35.6,19.2,30.17,NE,36,11.5,11.5,51,0.00,CLR,,0.00,WeatherDisplay:10.37,2013-03-11 11:02:00,
2013-03-11 11:07:00,35.5,17.7,30.17,ENE,74,11.5,11.5,48,0.00,CLR,,0.00,WeatherDisplay:10.37,2013-03-11 11:07:00,
2013-03-11 11:12:00,35.7,18.4,30.17,NNW,331,8.0,8.0,49,0.00,CLR,,0.00,WeatherDisplay:10.37,2013-03-11 11:12:00,
2013-03-11 11:17:00,35.7,16.9,30.17,NE,47,17.3,17.3,46,0.00,CLR,,0.00,WeatherDisplay:10.37,2013-03-11 11:17:00,
2013-03-11 11:23:00,36.0,19.1,30.17,ENE,72,11.5,11.5,50,0.00,CLR,,0.00,WeatherDisplay:10.37,2013-03-11 11:23:00,
2013-03-11 11:28:00,35.9,18.1,30.17,East,98,15.0,15.0,48,0.00,CLR,,0.00,WeatherDisplay:10.37,2013-03-11 11:28:00,
2013-03-11 11:33:00,36.0,18.2,30.17,NE,43,15.0,15.0,48,0.00,CLR,,0.00,WeatherDisplay:10.37,2013-03-11 11:33:00,
2013-03-11 11:38:00,35.9,19.0,30.17,North,3,13.8,13.8,50,0.00,CLR,,0.00,WeatherDisplay:10.37,2013-03-11 11:38:00,
2013-03-11 11:43:00,36.0,19.1,30.17,NE,41,17.3,17.3,50,0.00,CLR,,0.00,WeatherDisplay:10.37,2013-03-11 11:43:00,
2013-03-11 11:48:00,36.1,19.7,30.16,ENE,63,15.0,15.0,51,0.00,CLR,,0.00,WeatherDisplay:10.37,2013-03-11 11:48:00,
2013-03-11 11:53:00,36.0,18.7,30.16,NNE,20,17.3,17.3,49,0.00,CLR,,0.00,WeatherDisplay:10.37,2013-03-11 11:53:00,
2013-03-11 11:58:00,36.1,19.2,30.16,ENE,77,12.7,12.7,50,0.00,CLR,,0.00,WeatherDisplay:10.37,2013-03-11 11:58:00,
2013-03-11 12:03:00,36.1,18.3,30.16,ENE,57,18.4,18.4,48,0.00,CLR,,0.00,WeatherDisplay:10.37,2013-03-11 12:03:00,
2013-03-11 12:08:00,36.2,19.3,30.16,ENE,63,11.5,11.5,50,0.00,CLR,,0.00,WeatherDisplay:10.37,2013-03-11 12:08:00,
2013-03-11 12:13:00,36.5,19.6,30.16,NNE,32,16.1,16.1,50,0.00,CLR,,0.00,WeatherDisplay:10.37,2013-03-11 12:13:00,
2013-03-11 12:18:00,36.7,19.8,30.16,NNE,14,12.7,12.7,50,0.00,CLR,,0.00,WeatherDisplay:10.37,2013-03-11 12:18:00,
2013-03-11 12:23:00,36.9,20.4,30.16,ENE,60,15.0,15.0,51,0.00,CLR,,0.00,WeatherDisplay:10.37,2013-03-11 12:23:00,
2013-03-11 12:28:00,36.9,20.0,30.16,NE,54,17.3,17.3,50,0.00,CLR,,0.00,WeatherDisplay:10.37,2013-03-11 12:28:00,
2013-03-11 12:33:00,36.9,19.0,30.16,NW,323,12.7,12.7,48,0.00,CLR,,0.00,WeatherDisplay:10.37,2013-03-11 12:33:00,
2013-03-11 12:38:00,37.5,20.5,30.16,North,8,16.0,16.0,50,0.00,CLR,,0.00,WeatherDisplay:10.37,2013-03-11 12:38:00,
2013-03-11 12:43:00,37.3,19.9,30.16,ENE,61,12.0,12.0,49,0.00,CLR,,0.00,WeatherDisplay:10.37,2013-03-11 12:43:00,
2013-03-11 12:48:00,37.1,20.6,30.16,ENE,71,19.6,19.6,51,0.00,CLR,,0.00,WeatherDisplay:10.37,2013-03-11 12:48:00,
2013-03-11 12:53:00,37.3,20.3,30.16,NNE,29,16.1,16.1,50,0.00,CLR,,0.00,WeatherDisplay:10.37,2013-03-11 12:53:00,
2013-03-11 13:00:00,37.6,20.1,30.16,NE,36,11.0,11.0,49,0.00,CLR,,0.00,WeatherDisplay:10.37,2013-03-11 13:00:00,
2013-03-11 13:05:00,37.3,20.3,30.15,NE,39,16.1,16.1,50,0.00,CLR,,0.00,WeatherDisplay:10.37,2013-03-11 13:05:00,
2013-03-11 13:10:00,37.4,19.5,30.16,NNE,27,16.1,16.1,48,0.00,CLR,,0.00,WeatherDisplay:10.37,2013-03-11 13:10:00,
2013-03-11 13:15:00,37.0,19.6,30.16,NE,36,15.0,15.0,49,0.00,CLR,,0.00,WeatherDisplay:10.37,2013-03-11 13:15:00,
2013-03-11 13:20:00,36.8,19.9,30.16,NE,40,15.0,15.0,50,0.00,CLR,,0.00,WeatherDisplay:10.37,2013-03-11 13:20:00,
2013-03-11 13:25:00,36.6,20.2,30.16,NNE,18,8.1,8.1,51,0.00,CLR,,0.00,WeatherDisplay:10.37,2013-03-11 13:25:00,
2013-03-11 13:30:00,36.5,19.6,30.16,ESE,106,11.5,11.5,50,0.00,CLR,,0.00,WeatherDisplay:10.37,2013-03-11 13:30:00,
2013-03-11 13:35:00,36.8,19.9,30.16,NNE,32,16.1,16.1,50,0.00,CLR,,0.00,WeatherDisplay:10.37,2013-03-11 13:35:00,
2013-03-11 13:41:00,37.0,20.5,30.16,ENE,72,13.8,13.8,51,0.00,CLR,,0.00,WeatherDisplay:10.37,2013-03-11 13:41:00,
2013-03-11 13:47:00,36.7,19.8,30.16,NNE,12,15.0,15.0,50,0.00,CLR,,0.00,WeatherDisplay:10.37,2013-03-11 13:47:00,
2013-03-11 13:52:00,36.6,20.2,30.16,North,349,13.8,13.8,51,0.00,CLR,,0.00,WeatherDisplay:10.37,2013-03-11 13:52:00,
2013-03-11 13:57:00,37.1,20.6,30.16,North,356,17.3,17.3,51,0.00,CLR,,0.00,WeatherDisplay:10.37,2013-03-11 13:57:00,
2013-03-11 14:02:00,37.0,21.4,30.16,North,3,13.0,13.0,53,0.00,CLR,,0.00,WeatherDisplay:10.37,2013-03-11 14:02:00,
2013-03-11 14:07:00,36.6,20.6,30.16,NNW,337,11.5,11.5,52,0.00,CLR,,0.00,WeatherDisplay:10.37,2013-03-11 14:07:00,
2013-03-11 14:12:00,36.5,20.5,30.16,SSE,166,6.9,6.9,52,0.00,CLR,,0.00,WeatherDisplay:10.37,2013-03-11 14:12:00,
2013-03-11 14:17:00,37.1,21.1,30.15,NNW,347,5.8,5.8,52,0.00,CLR,,0.00,WeatherDisplay:10.37,2013-03-11 14:17:00,
2013-03-11 14:23:00,37.8,21.3,30.16,NNW,331,12.7,12.7,51,0.00,CLR,,0.00,WeatherDisplay:10.37,2013-03-11 14:23:00,
2013-03-11 14:28:00,37.5,20.5,30.15,North,6,9.2,9.2,50,0.00,CLR,,0.00,WeatherDisplay:10.37,2013-03-11 14:28:00,
2013-03-11 14:35:00,37.0,19.6,30.16,North,9,10.4,10.4,49,0.00,CLR,,0.00,WeatherDisplay:10.37,2013-03-11 14:35:00,
2013-03-11 14:40:00,36.7,19.3,30.16,North,359,15.0,15.0,49,0.00,CLR,,0.00,WeatherDisplay:10.37,2013-03-11 14:40:00,
2013-03-11 14:45:00,36.3,19.4,30.16,NE,43,12.7,12.7,50,0.00,CLR,,0.00,WeatherDisplay:10.37,2013-03-11 14:45:00,
2013-03-11 14:50:00,36.2,19.8,30.16,ENE,72,10.4,10.4,51,0.00,CLR,,0.00,WeatherDisplay:10.37,2013-03-11 14:50:00,
2013-03-11 14:56:00,36.3,19.9,30.16,NE,47,10.4,10.4,51,0.00,CLR,,0.00,WeatherDisplay:10.37,2013-03-11 14:56:00,
2013-03-11 15:02:00,36.6,19.7,30.16,North,8,9.0,9.0,50,0.00,CLR,,0.00,WeatherDisplay:10.37,2013-03-11 15:02:00,
2013-03-11 15:07:00,36.7,19.8,30.15,ENE,72,17.3,17.3,50,0.00,CLR,,0.00,WeatherDisplay:10.37,2013-03-11 15:07:00,
2013-03-11 15:12:00,37.1,19.2,30.15,ENE,71,12.7,12.7,48,0.00,CLR,,0.00,WeatherDisplay:10.37,2013-03-11 15:12:00,
2013-03-11 15:17:00,37.6,20.1,30.15,NE,56,11.5,11.5,49,0.00,CLR,,0.00,WeatherDisplay:10.37,2013-03-11 15:17:00,
2013-03-11 15:22:00,38.1,20.1,30.15,North,3,11.5,11.5,48,0.00,CLR,,0.00,WeatherDisplay:10.37,2013-03-11 15:22:00,
2013-03-11 15:27:00,37.9,18.9,30.15,North,3,9.2,9.2,46,0.00,CLR,,0.00,WeatherDisplay:10.37,2013-03-11 15:27:00,
2013-03-11 15:32:00,37.9,17.9,30.15,NE,34,11.5,11.5,44,0.00,CLR,,0.00,WeatherDisplay:10.37,2013-03-11 15:32:00,
2013-03-11 15:37:00,37.8,17.8,30.15,North,3,13.8,13.8,44,0.00,CLR,,0.00,WeatherDisplay:10.37,2013-03-11 15:37:00,
2013-03-11 15:43:00,37.8,18.3,30.15,NE,50,9.2,10.0,45,0.00,CLR,,0.00,WeatherDisplay:10.37,2013-03-11 15:43:00,
2013-03-11 15:48:00,37.9,19.4,30.15,ENE,59,13.0,13.0,47,0.00,CLR,,0.00,WeatherDisplay:10.37,2013-03-11 15:48:00,
2013-03-11 15:53:00,38.2,19.7,30.15,North,349,6.9,6.9,47,0.00,CLR,,0.00,WeatherDisplay:10.37,2013-03-11 15:53:00,
2013-03-11 15:58:00,38.4,21.4,30.14,ENE,57,10.4,10.4,50,0.00,CLR,,0.00,WeatherDisplay:10.37,2013-03-11 15:58:00,
2013-03-11 16:03:00,38.4,19.9,30.14,NE,37,10.4,10.4,47,0.00,CLR,,0.00,WeatherDisplay:10.37,2013-03-11 16:03:00,
2013-03-11 16:08:00,38.4,19.9,30.14,North,3,13.8,13.8,47,0.00,CLR,,0.00,WeatherDisplay:10.37,2013-03-11 16:08:00,
2013-03-11 16:13:00,38.1,18.6,30.14,NE,41,13.0,13.0,45,0.00,CLR,,0.00,WeatherDisplay:10.37,2013-03-11 16:13:00,
2013-03-11 16:18:00,37.8,18.3,30.14,NE,47,11.5,11.5,45,0.00,CLR,,0.00,WeatherDisplay:10.37,2013-03-11 16:18:00,
2013-03-11 16:23:00,37.9,18.4,30.15,ENE,77,11.5,11.5,45,0.00,CLR,,0.00,WeatherDisplay:10.37,2013-03-11 16:23:00,
2013-03-11 16:28:00,37.7,18.8,30.15,NE,36,13.8,13.8,46,0.00,CLR,,0.00,WeatherDisplay:10.37,2013-03-11 16:28:00,
2013-03-11 16:33:00,37.8,19.3,30.15,NNE,15,10.4,10.4,47,0.00,CLR,,0.00,WeatherDisplay:10.37,2013-03-11 16:33:00,
2013-03-11 16:39:00,37.7,18.8,30.15,NNE,26,6.9,6.9,46,0.00,CLR,,0.00,WeatherDisplay:10.37,2013-03-11 16:39:00,
2013-03-11 16:44:00,37.7,19.8,30.15,ENE,68,11.5,11.5,48,0.00,CLR,,0.00,WeatherDisplay:10.37,2013-03-11 16:44:00,
2013-03-11 16:49:00,37.5,20.1,30.15,NNE,23,12.7,12.7,49,0.00,CLR,,0.00,WeatherDisplay:10.37,2013-03-11 16:49:00,
2013-03-11 16:55:00,37.4,19.5,30.15,NE,47,9.0,9.0,48,0.00,CLR,,0.00,WeatherDisplay:10.37,2013-03-11 16:55:00,
2013-03-11 17:00:00,37.2,18.8,30.15,North,356,11.5,11.5,47,0.00,CLR,,0.00,WeatherDisplay:10.37,2013-03-11 17:00:00,
2013-03-11 17:05:00,37.0,18.6,30.15,NE,40,13.0,13.0,47,0.00,CLR,,0.00,WeatherDisplay:10.37,2013-03-11 17:05:00,
2013-03-11 17:10:00,36.9,19.0,30.15,NE,42,8.1,8.1,48,0.00,CLR,,0.00,WeatherDisplay:10.37,2013-03-11 17:10:00,
2013-03-11 17:15:00,36.7,19.3,30.15,NNE,27,10.4,10.4,49,0.00,CLR,,0.00,WeatherDisplay:10.37,2013-03-11 17:15:00,
2013-03-11 17:21:00,36.5,20.1,30.15,NNE,16,6.9,6.9,51,0.00,CLR,,0.00,WeatherDisplay:10.37,2013-03-11 17:21:00,
2013-03-11 17:26:00,36.5,19.6,30.15,ENE,60,7.0,7.0,50,0.00,CLR,,0.00,WeatherDisplay:10.37,2013-03-11 17:26:00,
2013-03-11 17:31:00,36.4,20.0,30.15,NE,41,8.0,8.0,51,0.00,CLR,,0.00,WeatherDisplay:10.37,2013-03-11 17:31:00,
2013-03-11 17:36:00,36.0,19.6,30.16,NE,47,9.2,9.2,51,0.00,CLR,,0.00,WeatherDisplay:10.37,2013-03-11 17:36:00,
2013-03-11 17:42:00,35.7,19.3,30.16,NE,50,9.2,9.2,51,0.00,CLR,,0.00,WeatherDisplay:10.37,2013-03-11 17:42:00,
2013-03-11 17:47:00,35.2,19.8,30.16,North,349,6.9,6.9,53,0.00,CLR,,0.00,WeatherDisplay:10.37,2013-03-11 17:47:00,
2013-03-11 17:52:00,34.9,20.8,30.16,NNE,18,8.1,8.1,56,0.00,CLR,,0.00,WeatherDisplay:10.37,2013-03-11 17:52:00,
2013-03-11 17:57:00,34.5,20.0,30.16,NNE,22,3.5,3.5,55,0.00,CLR,,0.00,WeatherDisplay:10.37,2013-03-11 17:57:00,
2013-03-11 18:02:00,34.2,19.7,30.16,NNE,23,4.0,4.0,55,0.00,CLR,,0.00,WeatherDisplay:10.37,2013-03-11 18:02:00,
2013-03-11 18:07:00,33.9,19.4,30.17,NE,39,3.5,3.5,55,0.00,CLR,,0.00,WeatherDisplay:10.37,2013-03-11 18:07:00,
2013-03-11 18:12:00,33.7,19.2,30.17,North,6,8.1,8.1,55,0.00,CLR,,0.00,WeatherDisplay:10.37,2013-03-11 18:12:00,
2013-03-11 18:17:00,33.6,19.6,30.17,NNW,338,3.5,3.5,56,0.00,CLR,,0.00,WeatherDisplay:10.37,2013-03-11 18:17:00,
2013-03-11 18:23:00,33.4,19.4,30.17,NNE,15,4.6,4.6,56,0.00,CLR,,0.00,WeatherDisplay:10.37,2013-03-11 18:23:00,
2013-03-11 18:28:00,33.3,19.7,30.17,NE,39,3.5,3.5,57,0.00,CLR,,0.00,WeatherDisplay:10.37,2013-03-11 18:28:00,
2013-03-11 18:33:00,33.1,19.5,30.17,NNW,328,5.8,5.8,57,0.00,CLR,,0.00,WeatherDisplay:10.37,2013-03-11 18:33:00,
2013-03-11 18:38:00,32.9,19.7,30.17,NW,325,2.3,2.3,58,0.00,CLR,,0.00,WeatherDisplay:10.37,2013-03-11 18:38:00,
2013-03-11 18:44:00,32.8,20.0,30.17,NNW,347,5.8,5.8,59,0.00,CLR,,0.00,WeatherDisplay:10.37,2013-03-11 18:44:00,
2013-03-11 18:49:00,32.6,20.2,30.17,NNW,338,2.0,2.0,60,0.00,CLR,,0.00,WeatherDisplay:10.37,2013-03-11 18:49:00,
2013-03-11 18:54:00,32.4,20.0,30.17,NW,318,2.3,2.3,60,0.00,CLR,,0.00,WeatherDisplay:10.37,2013-03-11 18:54:00,
2013-03-11 18:59:00,32.3,20.0,30.17,NW,309,2.3,2.3,60,0.00,CLR,,0.00,WeatherDisplay:10.37,2013-03-11 18:59:00,
2013-03-11 19:04:00,32.3,20.0,30.17,NNW,337,2.3,2.3,60,0.00,CLR,,0.00,WeatherDisplay:10.37,2013-03-11 19:04:00,
2013-03-11 19:09:00,32.2,19.9,30.17,WNW,297,1.2,1.2,60,0.00,CLR,,0.00,WeatherDisplay:10.37,2013-03-11 19:09:00,
2013-03-11 19:15:00,32.0,19.7,30.18,North,3,6.9,6.9,60,0.00,CLR,,0.00,WeatherDisplay:10.37,2013-03-11 19:15:00,
2013-03-11 19:20:00,32.0,19.3,30.18,North,2,3.5,3.5,59,0.00,CLR,,0.00,WeatherDisplay:10.37,2013-03-11 19:20:00,
2013-03-11 19:25:00,31.9,19.2,30.18,North,8,3.5,3.5,59,0.00,CLR,,0.00,WeatherDisplay:10.37,2013-03-11 19:25:00,
2013-03-11 19:30:00,31.9,19.2,30.17,NNE,18,6.9,6.9,59,0.00,CLR,,0.00,WeatherDisplay:10.37,2013-03-11 19:30:00,
2013-03-11 19:36:00,32.1,19.4,30.18,NW,304,5.8,5.8,59,0.00,CLR,,0.00,WeatherDisplay:10.37,2013-03-11 19:36:00,
2013-03-11 19:41:00,32.0,19.3,30.18,WNW,296,3.5,3.5,59,0.00,CLR,,0.00,WeatherDisplay:10.37,2013-03-11 19:41:00,
2013-03-11 19:47:00,31.9,19.6,30.18,NW,318,4.6,4.6,60,0.00,CLR,,0.00,WeatherDisplay:10.37,2013-03-11 19:47:00,
2013-03-11 19:52:00,31.8,19.5,30.18,North,358,2.3,2.3,60,0.00,CLR,,0.00,WeatherDisplay:10.37,2013-03-11 19:52:00,
2013-03-11 19:57:00,31.6,19.7,30.18,NNE,18,4.0,4.0,61,0.00,CLR,,0.00,WeatherDisplay:10.37,2013-03-11 19:57:00,
2013-03-11 20:03:00,31.7,19.8,30.19,North,358,3.5,3.5,61,0.00,CLR,,0.00,WeatherDisplay:10.37,2013-03-11 20:03:00,
2013-03-11 20:10:00,31.6,19.7,30.19,NE,41,3.5,3.5,61,0.00,CLR,,0.00,WeatherDisplay:10.37,2013-03-11 20:10:00,
2013-03-11 20:17:00,31.5,19.6,30.18,North,5,3.5,3.5,61,0.00,CLR,,0.00,WeatherDisplay:10.37,2013-03-11 20:17:00,
2013-03-11 20:22:00,31.5,19.6,30.18,ENE,71,3.0,3.0,61,0.00,CLR,,0.00,WeatherDisplay:10.37,2013-03-11 20:22:00,
2013-03-11 20:27:00,31.4,20.2,30.18,NE,44,3.5,3.5,63,0.00,CLR,,0.00,WeatherDisplay:10.37,2013-03-11 20:27:00,
2013-03-11 20:32:00,31.4,20.6,30.18,ENE,68,3.5,3.5,64,0.00,CLR,,0.00,WeatherDisplay:10.37,2013-03-11 20:32:00,
2013-03-11 20:37:00,31.0,20.6,30.18,ENE,60,2.3,2.3,65,0.00,CLR,,0.00,WeatherDisplay:10.37,2013-03-11 20:37:00,
2013-03-11 20:42:00,30.4,20.0,30.18,ENE,60,0.0,0.0,65,0.00,CLR,,0.00,WeatherDisplay:10.37,2013-03-11 20:42:00,
2013-03-11 20:47:00,29.8,19.5,30.19,ENE,60,0.0,0.0,65,0.00,CLR,,0.00,WeatherDisplay:10.37,2013-03-11 20:47:00,
2013-03-11 20:53:00,29.8,19.8,30.19,ENE,60,0.0,0.0,66,0.00,CLR,,0.00,WeatherDisplay:10.37,2013-03-11 20:53:00,
2013-03-11 20:58:00,29.6,19.6,30.18,ENE,59,2.3,2.3,66,0.00,CLR,,0.00,WeatherDisplay:10.37,2013-03-11 20:58:00,
2013-03-11 21:04:00,29.5,20.6,30.18,NE,48,1.2,1.2,69,0.00,CLR,,0.00,WeatherDisplay:10.37,2013-03-11 21:04:00,
2013-03-11 21:09:00,29.2,20.3,30.19,NE,40,1.2,0.0,69,0.00,CLR,,0.00,WeatherDisplay:10.37,2013-03-11 21:09:00,
2013-03-11 21:15:00,28.8,19.9,30.19,NE,40,1.2,1.2,69,0.00,CLR,,0.00,WeatherDisplay:10.37,2013-03-11 21:15:00,
2013-03-11 21:20:00,28.8,20.2,30.19,NE,40,1.2,1.2,70,0.00,CLR,,0.00,WeatherDisplay:10.37,2013-03-11 21:20:00,
2013-03-11 21:25:00,28.7,20.1,30.19,NE,40,0.0,0.0,70,0.00,CLR,,0.00,WeatherDisplay:10.37,2013-03-11 21:25:00,
2013-03-11 21:31:00,28.6,20.4,30.19,NE,40,1.2,0.0,71,0.00,CLR,,0.00,WeatherDisplay:10.37,2013-03-11 21:31:00,
2013-03-11 21:36:00,28.6,20.4,30.19,WNW,293,2.3,2.3,71,0.00,CLR,,0.00,WeatherDisplay:10.37,2013-03-11 21:36:00,
2013-03-11 21:41:00,28.8,20.6,30.19,WNW,288,1.2,0.0,71,0.00,CLR,,0.00,WeatherDisplay:10.37,2013-03-11 21:41:00,
2013-03-11 21:46:00,29.3,21.7,30.18,ENE,70,1.2,1.2,73,0.00,CLR,,0.00,WeatherDisplay:10.37,2013-03-11 21:46:00,
2013-03-11 21:52:00,29.1,21.2,30.18,ENE,67,1.2,1.2,72,0.00,CLR,,0.00,WeatherDisplay:10.37,2013-03-11 21:52:00,
2013-03-11 21:57:00,28.9,21.0,30.18,ENE,67,1.2,1.2,72,0.00,CLR,,0.00,WeatherDisplay:10.37,2013-03-11 21:57:00,
2013-03-11 22:02:00,28.8,20.9,30.18,ENE,67,1.2,1.2,72,0.00,CLR,,0.00,WeatherDisplay:10.37,2013-03-11 22:02:00,
2013-03-11 22:07:00,28.7,20.8,30.18,ENE,78,1.2,1.2,72,0.00,CLR,,0.00,WeatherDisplay:10.37,2013-03-11 22:07:00,
2013-03-11 22:12:00,28.8,21.6,30.18,NE,54,2.3,2.3,74,0.00,CLR,,0.00,WeatherDisplay:10.37,2013-03-11 22:12:00,
2013-03-11 22:18:00,28.6,21.4,30.18,ENE,64,1.2,1.2,74,0.00,CLR,,0.00,WeatherDisplay:10.37,2013-03-11 22:18:00,
2013-03-11 22:23:00,28.5,20.9,30.18,East,89,2.3,2.3,73,0.00,CLR,,0.00,WeatherDisplay:10.37,2013-03-11 22:23:00,
2013-03-11 22:29:00,28.4,20.5,30.18,East,84,0.0,0.0,72,0.00,CLR,,0.00,WeatherDisplay:10.37,2013-03-11 22:29:00,
2013-03-11 22:35:00,28.2,20.3,30.18,East,84,0.0,0.0,72,0.00,CLR,,0.00,WeatherDisplay:10.37,2013-03-11 22:35:00,
2013-03-11 22:40:00,27.9,20.7,30.19,WNW,296,1.2,1.2,74,0.00,CLR,,0.00,WeatherDisplay:10.37,2013-03-11 22:40:00,
2013-03-11 22:45:00,28.5,21.9,30.19,WNW,297,1.2,1.2,76,0.00,CLR,,0.00,WeatherDisplay:10.37,2013-03-11 22:45:00,
2013-03-11 22:50:00,28.7,22.1,30.19,WNW,297,0.0,0.0,76,0.00,CLR,,0.00,WeatherDisplay:10.37,2013-03-11 22:50:00,
2013-03-11 22:55:00,28.6,21.7,30.19,WNW,298,0.0,0.0,75,0.00,CLR,,0.00,WeatherDisplay:10.37,2013-03-11 22:55:00,
2013-03-11 23:00:00,28.2,21.3,30.18,WNW,299,0.0,0.0,75,0.00,CLR,,0.00,WeatherDisplay:10.37,2013-03-11 23:00:00,
2013-03-11 23:05:00,28.3,21.7,30.18,WNW,297,0.0,0.0,76,0.00,CLR,,0.00,WeatherDisplay:10.37,2013-03-11 23:05:00,
2013-03-11 23:10:00,28.5,21.9,30.18,WNW,297,0.0,0.0,76,0.00,CLR,,0.00,WeatherDisplay:10.37,2013-03-11 23:10:00,
2013-03-11 23:16:00,28.5,22.2,30.18,West,274,0.0,0.0,77,0.00,CLR,,0.00,WeatherDisplay:10.37,2013-03-11 23:16:00,
2013-03-11 23:22:00,29.8,23.8,30.18,WSW,242,3.5,3.5,78,0.00,CLR,,0.00,WeatherDisplay:10.37,2013-03-11 23:22:00,
2013-03-11 23:27:00,30.3,23.6,30.18,WSW,248,1.2,1.2,76,0.00,CLR,,0.00,WeatherDisplay:10.37,2013-03-11 23:27:00,
2013-03-11 23:32:00,29.6,22.3,30.18,WNW,285,2.3,2.3,74,0.00,CLR,,0.00,WeatherDisplay:10.37,2013-03-11 23:32:00,
2013-03-11 23:37:00,28.8,21.9,30.18,WNW,285,0.0,0.0,75,0.00,CLR,,0.00,WeatherDisplay:10.37,2013-03-11 23:37:00,
2013-03-11 23:43:00,28.5,21.9,30.18,WNW,291,0.0,0.0,76,0.00,CLR,,0.00,WeatherDisplay:10.37,2013-03-11 23:43:00,
2013-03-11 23:48:00,28.3,21.7,30.18,NNW,327,1.2,1.2,76,0.00,CLR,,0.00,WeatherDisplay:10.37,2013-03-11 23:48:00,
2013-03-11 23:53:00,28.3,22.3,30.18,WNW,299,2.3,2.3,78,0.00,CLR,,0.00,WeatherDisplay:10.37,2013-03-11 23:53:00,
2013-03-11 23:58:00,28.6,22.0,30.18,WNW,288,2.3,2.3,76,0.00,CLR,,0.00,WeatherDisplay:10.37,2013-03-11 23:58:00,